Time,TemperatureF,DewpointF,PressureIn,WindDirection,WindDirectionDegrees,WindSpeedMPH,WindSpeedGustMPH,Humidity,HourlyPrecipIn,Conditions,Clouds,dailyrainin,SoftwareType,DateUTC
2013-03-17 00:02:00,63.6,55.5,29.96,NE,43,4.0,4.0,75,0.00,,,0.00,VWS V14.01,2013-03-17 10:02:00,
2013-03-17 00:07:00,63.7,55.6,29.96,East,81,4.0,4.0,75,0.00,,,0.00,VWS V14.01,2013-03-17 10:07:00,
2013-03-17 00:12:00,63.8,55.4,29.96,East,79,3.0,4.0,74,0.00,,,0.00,VWS V14.01,2013-03-17 10:12:00,
2013-03-17 00:17:00,64.1,55.3,29.95,NNE,16,2.0,3.0,73,0.00,,,0.00,VWS V14.01,2013-03-17 10:17:00,
2013-03-17 00:22:00,63.9,55.1,29.96,WSW,237,1.0,2.0,73,0.00,,,0.00,VWS V14.01,2013-03-17 10:22:00,
2013-03-17 00:27:00,64.0,54.8,29.96,NNE,25,1.0,1.0,72,0.00,,,0.00,VWS V14.01,2013-03-17 10:27:00,
2013-03-17 00:33:00,64.0,54.8,29.95,North,352,3.0,3.0,72,0.00,,,0.00,VWS V14.01,2013-03-17 10:33:00,
2013-03-17 00:38:00,63.8,54.6,29.95,NNE,13,2.0,2.0,72,0.00,,,0.00,VWS V14.01,2013-03-17 10:38:00,
2013-03-17 00:43:00,63.6,54.8,29.95,North,350,2.0,2.0,73,0.00,,,0.00,VWS V14.01,2013-03-17 10:43:00,
2013-03-17 00:48:00,63.4,54.6,29.96,NNW,338,3.0,3.0,73,0.00,,,0.00,VWS V14.01,2013-03-17 10:48:00,
2013-03-17 00:53:00,63.2,54.8,29.96,NE,42,0.0,1.0,74,0.00,,,0.00,VWS V14.01,2013-03-17 10:53:00,
2013-03-17 00:58:00,63.2,54.8,29.96,NE,47,4.0,6.0,74,0.00,,,0.00,VWS V14.01,2013-03-17 10:58:00,
2013-03-17 01:03:00,63.7,54.9,29.96,NNE,29,4.0,4.0,73,0.00,,,0.00,VWS V14.01,2013-03-17 11:03:00,
2013-03-17 01:08:00,64.0,54.8,29.96,NNE,18,3.0,3.0,72,0.00,,,0.00,VWS V14.01,2013-03-17 11:08:00,
2013-03-17 01:13:00,63.6,54.8,29.96,North,9,2.0,3.0,73,0.00,,,0.00,VWS V14.01,2013-03-17 11:13:00,
2013-03-17 01:18:00,63.2,54.8,29.96,NNE,15,3.0,4.0,74,0.00,,,0.00,VWS V14.01,2013-03-17 11:18:00,
2013-03-17 01:23:00,62.9,54.5,29.95,North,4,2.0,2.0,74,0.00,,,0.00,VWS V14.01,2013-03-17 11:23:00,
2013-03-17 01:28:00,62.5,54.5,29.95,North,2,2.0,2.0,75,0.00,,,0.00,VWS V14.01,2013-03-17 11:28:00,
2013-03-17 01:33:00,62.1,54.5,29.95,NNE,23,3.0,3.0,76,0.00,,,0.00,VWS V14.01,2013-03-17 11:33:00,
2013-03-17 01:38:00,61.9,54.3,29.95,NNE,23,2.0,2.0,76,0.00,,,0.00,VWS V14.01,2013-03-17 11:38:00,
2013-03-17 01:43:00,61.8,54.5,29.95,NNE,21,3.0,3.0,77,0.00,,,0.00,VWS V14.01,2013-03-17 11:43:00,
2013-03-17 01:48:00,62.5,54.8,29.94,North,4,5.0,5.0,76,0.00,,,0.00,VWS V14.01,2013-03-17 11:48:00,
2013-03-17 01:53:00,62.7,54.7,29.94,North,2,2.0,2.0,75,0.00,,,0.00,VWS V14.01,2013-03-17 11:53:00,
2013-03-17 01:59:00,62.5,54.5,29.94,NNE,19,1.0,2.0,75,0.00,,,0.00,VWS V14.01,2013-03-17 11:59:00,
2013-03-17 02:04:00,62.3,54.7,29.94,North,352,2.0,2.0,76,0.00,,,0.00,VWS V14.01,2013-03-17 12:04:00,
2013-03-17 02:09:00,62.2,54.5,29.94,North,2,3.0,3.0,76,0.00,,,0.00,VWS V14.01,2013-03-17 12:09:00,
2013-03-17 02:14:00,62.2,54.2,29.94,North,357,3.0,4.0,75,0.00,,,0.00,VWS V14.01,2013-03-17 12:14:00,
2013-03-17 02:19:00,62.2,54.5,29.94,North,355,2.0,2.0,76,0.00,,,0.00,VWS V14.01,2013-03-17 12:19:00,
2013-03-17 02:24:00,62.2,54.5,29.94,North,355,0.0,2.0,76,0.00,,,0.00,VWS V14.01,2013-03-17 12:24:00,
2013-03-17 02:29:00,62.2,54.2,29.94,NNE,18,4.0,5.0,75,0.00,,,0.00,VWS V14.01,2013-03-17 12:29:00,
2013-03-17 02:34:00,63.1,53.9,29.94,North,355,4.0,4.0,72,0.00,,,0.00,VWS V14.01,2013-03-17 12:34:00,
2013-03-17 02:39:00,63.2,54.0,29.94,NNW,336,3.0,3.0,72,0.00,,,0.00,VWS V14.01,2013-03-17 12:39:00,
2013-03-17 02:44:00,62.9,53.8,29.94,NNE,16,3.0,3.0,72,0.00,,,0.00,VWS V14.01,2013-03-17 12:44:00,
2013-03-17 02:49:00,62.8,53.7,29.94,North,350,3.0,3.0,72,0.00,,,0.00,VWS V14.01,2013-03-17 12:49:00,
2013-03-17 02:54:00,62.5,53.7,29.94,North,5,2.0,3.0,73,0.00,,,0.00,VWS V14.01,2013-03-17 12:54:00,
2013-03-17 02:59:00,62.2,53.8,29.94,NNE,28,3.0,4.0,74,0.00,,,0.00,VWS V14.01,2013-03-17 12:59:00,
2013-03-17 03:04:00,62.0,54.0,29.94,NNW,331,4.0,4.0,75,0.00,,,0.00,VWS V14.01,2013-03-17 13:04:00,
2013-03-17 03:09:00,61.9,53.9,29.94,WNW,287,4.0,5.0,75,0.00,,,0.00,VWS V14.01,2013-03-17 13:09:00,
2013-03-17 03:14:00,61.9,53.9,29.94,NW,309,5.0,5.0,75,0.00,,,0.00,VWS V14.01,2013-03-17 13:14:00,
2013-03-17 03:19:00,61.9,53.9,29.94,North,3,4.0,4.0,75,0.00,,,0.00,VWS V14.01,2013-03-17 13:19:00,
2013-03-17 03:25:00,61.7,53.7,29.94,NNW,345,3.0,3.0,75,0.00,,,0.00,VWS V14.01,2013-03-17 13:25:00,
2013-03-17 03:30:00,61.6,53.6,29.94,NW,316,5.0,5.0,75,0.00,,,0.00,VWS V14.01,2013-03-17 13:30:00,
2013-03-17 03:35:00,61.8,53.4,29.94,NNW,347,4.0,5.0,74,0.00,,,0.00,VWS V14.01,2013-03-17 13:35:00,
2013-03-17 03:40:00,61.9,53.5,29.93,North,351,4.0,4.0,74,0.00,,,0.00,VWS V14.01,2013-03-17 13:40:00,
2013-03-17 03:45:00,62.2,53.1,29.93,NNW,340,4.0,4.0,72,0.00,,,0.00,VWS V14.01,2013-03-17 13:45:00,
2013-03-17 03:50:00,61.9,53.5,29.93,NNW,334,4.0,5.0,74,0.00,,,0.00,VWS V14.01,2013-03-17 13:50:00,
2013-03-17 03:55:00,61.4,53.4,29.93,NW,322,5.0,5.0,75,0.00,,,0.00,VWS V14.01,2013-03-17 13:55:00,
2013-03-17 04:00:00,61.5,53.5,29.93,NNW,348,3.0,4.0,75,0.00,,,0.00,VWS V14.01,2013-03-17 14:00:00,
2013-03-17 04:05:00,61.3,53.3,29.93,West,276,5.0,5.0,75,0.00,,,0.00,VWS V14.01,2013-03-17 14:05:00,
2013-03-17 04:10:00,61.4,53.4,29.93,NW,312,5.0,7.0,75,0.00,,,0.00,VWS V14.01,2013-03-17 14:10:00,
2013-03-17 04:15:00,61.8,53.4,29.93,NNW,327,5.0,6.0,74,0.00,,,0.00,VWS V14.01,2013-03-17 14:15:00,
2013-03-17 04:20:00,61.7,53.3,29.94,NNW,334,4.0,5.0,74,0.00,,,0.00,VWS V14.01,2013-03-17 14:20:00,
2013-03-17 04:25:00,61.6,53.2,29.94,WNW,296,5.0,7.0,74,0.00,,,0.00,VWS V14.01,2013-03-17 14:25:00,
2013-03-17 04:30:00,61.8,53.1,29.94,NW,321,7.0,7.0,73,0.00,,,0.00,VWS V14.01,2013-03-17 14:30:00,
2013-03-17 04:36:00,61.9,53.2,29.94,NNW,335,4.0,5.0,73,0.00,,,0.00,VWS V14.01,2013-03-17 14:36:00,
2013-03-17 04:41:00,62.0,52.9,29.94,North,2,3.0,4.0,72,0.00,,,0.00,VWS V14.01,2013-03-17 14:41:00,
2013-03-17 04:46:00,62.2,53.1,29.94,NNW,339,4.0,4.0,72,0.00,,,0.00,VWS V14.01,2013-03-17 14:46:00,
2013-03-17 04:51:00,61.9,53.2,29.94,NNW,343,4.0,4.0,73,0.00,,,0.00,VWS V14.01,2013-03-17 14:51:00,
2013-03-17 04:56:00,61.7,53.0,29.94,NW,317,6.0,6.0,73,0.00,,,0.00,VWS V14.01,2013-03-17 14:56:00,
2013-03-17 05:02:00,61.7,53.0,29.94,NNW,333,5.0,6.0,73,0.00,,,0.00,VWS V14.01,2013-03-17 15:02:00,
2013-03-17 05:07:00,61.6,53.2,29.94,NW,312,5.0,6.0,74,0.00,,,0.00,VWS V14.01,2013-03-17 15:07:00,
2013-03-17 05:12:00,61.8,53.1,29.94,NW,324,6.0,6.0,73,0.00,,,0.00,VWS V14.01,2013-03-17 15:12:00,
2013-03-17 05:17:00,62.1,53.0,29.93,NNW,329,7.0,8.0,72,0.00,,,0.00,VWS V14.01,2013-03-17 15:17:00,
2013-03-17 05:22:00,62.1,53.0,29.93,NW,312,7.0,8.0,72,0.00,,,0.00,VWS V14.01,2013-03-17 15:22:00,
2013-03-17 05:27:00,62.2,53.1,29.93,NNW,336,5.0,6.0,72,0.00,,,0.00,VWS V14.01,2013-03-17 15:27:00,
2013-03-17 05:32:00,62.2,53.5,29.93,NNW,341,8.0,8.0,73,0.00,,,0.00,VWS V14.01,2013-03-17 15:32:00,
2013-03-17 05:37:00,62.4,53.6,29.93,NW,318,5.0,5.0,73,0.00,,,0.00,VWS V14.01,2013-03-17 15:37:00,
2013-03-17 05:42:00,62.1,53.3,29.93,North,356,3.0,3.0,73,0.00,,,0.00,VWS V14.01,2013-03-17 15:42:00,
2013-03-17 05:47:00,61.9,53.2,29.94,NW,316,5.0,5.0,73,0.00,,,0.00,VWS V14.01,2013-03-17 15:47:00,
2013-03-17 05:52:00,61.5,53.2,29.94,NNW,347,3.0,3.0,74,0.00,,,0.00,VWS V14.01,2013-03-17 15:52:00,
2013-03-17 05:58:00,61.1,53.5,29.95,NW,322,7.0,7.0,76,0.00,,,0.00,VWS V14.01,2013-03-17 15:58:00,
2013-03-17 06:03:00,61.1,53.5,29.95,WNW,303,6.0,7.0,76,0.00,,,0.00,VWS V14.01,2013-03-17 16:03:00,
2013-03-17 06:08:00,61.2,53.2,29.95,NNW,338,7.0,7.0,75,0.00,,,0.00,VWS V14.01,2013-03-17 16:08:00,
2013-03-17 06:13:00,61.1,53.1,29.95,NW,317,5.0,6.0,75,0.00,,,0.00,VWS V14.01,2013-03-17 16:13:00,
2013-03-17 06:18:00,61.1,53.1,29.95,NW,315,5.0,5.0,75,0.00,,,0.00,VWS V14.01,2013-03-17 16:18:00,
2013-03-17 06:23:00,60.8,52.8,29.96,North,350,3.0,5.0,75,0.00,,,0.00,VWS V14.01,2013-03-17 16:23:00,
2013-03-17 06:28:00,60.7,52.7,29.96,NW,309,5.0,6.0,75,0.00,,,0.00,VWS V14.01,2013-03-17 16:28:00,
2013-03-17 06:33:00,60.7,52.4,29.96,NNE,33,1.0,2.0,74,0.00,,,0.00,VWS V14.01,2013-03-17 16:33:00,
2013-03-17 06:38:00,60.8,52.5,29.96,NW,318,7.0,7.0,74,0.00,,,0.00,VWS V14.01,2013-03-17 16:38:00,
2013-03-17 06:43:00,61.0,52.3,29.96,North,353,2.0,3.0,73,0.00,,,0.00,VWS V14.01,2013-03-17 16:43:00,
2013-03-17 06:48:00,60.8,52.5,29.96,NW,320,6.0,6.0,74,0.00,,,0.00,VWS V14.01,2013-03-17 16:48:00,
2013-03-17 06:53:00,61.5,52.8,29.96,North,350,3.0,3.0,73,0.00,,,0.00,VWS V14.01,2013-03-17 16:53:00,
2013-03-17 06:58:00,61.5,52.4,29.96,NNE,20,4.0,4.0,72,0.00,,,0.00,VWS V14.01,2013-03-17 16:58:00,
2013-03-17 07:04:00,61.4,51.9,29.96,North,5,3.0,4.0,71,0.00,,,0.00,VWS V14.01,2013-03-17 17:04:00,
2013-03-17 07:09:00,62.2,52.7,29.96,North,11,2.0,3.0,71,0.00,,,0.00,VWS V14.01,2013-03-17 17:09:00,
2013-03-17 07:14:00,63.6,53.7,29.96,NNE,19,2.0,2.0,70,0.00,,,0.00,VWS V14.01,2013-03-17 17:14:00,
2013-03-17 07:19:00,64.4,54.4,29.97,NE,46,6.0,7.0,70,0.00,,,0.00,VWS V14.01,2013-03-17 17:19:00,
2013-03-17 07:24:00,65.2,54.8,29.97,North,356,6.0,6.0,69,0.00,,,0.00,VWS V14.01,2013-03-17 17:24:00,
2013-03-17 07:29:00,65.4,55.0,29.97,NNE,25,1.0,3.0,69,0.00,,,0.00,VWS V14.01,2013-03-17 17:29:00,
2013-03-17 07:34:00,65.7,55.3,29.98,ENE,72,3.0,3.0,69,0.00,,,0.00,VWS V14.01,2013-03-17 17:34:00,
2013-03-17 07:39:00,65.8,55.4,29.98,NNE,23,4.0,6.0,69,0.00,,,0.00,VWS V14.01,2013-03-17 17:39:00,
2013-03-17 07:44:00,65.7,54.0,29.98,ENE,61,6.0,6.0,66,0.00,,,0.00,VWS V14.01,2013-03-17 17:44:00,
2013-03-17 07:49:00,65.8,54.5,29.97,East,100,4.0,5.0,67,0.00,,,0.00,VWS V14.01,2013-03-17 17:49:00,
2013-03-17 07:54:00,66.0,55.5,29.97,ENE,70,4.0,5.0,69,0.00,,,0.00,VWS V14.01,2013-03-17 17:54:00,
2013-03-17 07:59:00,66.0,56.0,29.98,East,79,5.0,8.0,70,0.00,,,0.00,VWS V14.01,2013-03-17 17:59:00,
2013-03-17 08:04:00,65.9,55.5,29.98,ENE,61,6.0,7.0,69,0.00,,,0.00,VWS V14.01,2013-03-17 18:04:00,
2013-03-17 08:09:00,65.9,55.8,29.98,ENE,77,3.0,4.0,70,0.00,,,0.00,VWS V14.01,2013-03-17 18:09:00,
2013-03-17 08:14:00,66.1,56.0,29.98,East,101,6.0,7.0,70,0.00,,,0.00,VWS V14.01,2013-03-17 18:14:00,
2013-03-17 08:20:00,66.6,56.5,29.99,East,96,5.0,6.0,70,0.00,,,0.00,VWS V14.01,2013-03-17 18:20:00,
2013-03-17 08:25:00,66.7,57.0,29.99,NE,56,7.0,8.0,71,0.00,,,0.00,VWS V14.01,2013-03-17 18:25:00,
2013-03-17 08:30:00,66.9,57.2,29.99,East,80,7.0,7.0,71,0.00,,,0.00,VWS V14.01,2013-03-17 18:30:00,
2013-03-17 08:35:00,67.3,57.6,29.99,ESE,102,8.0,8.0,71,0.00,,,0.00,VWS V14.01,2013-03-17 18:35:00,
2013-03-17 08:40:00,67.5,57.8,29.99,ENE,71,7.0,7.0,71,0.00,,,0.00,VWS V14.01,2013-03-17 18:40:00,
2013-03-17 08:45:00,67.9,58.2,29.99,NE,53,5.0,6.0,71,0.00,,,0.00,VWS V14.01,2013-03-17 18:45:00,
2013-03-17 08:50:00,68.4,57.8,30.00,NE,53,4.0,8.0,69,0.00,,,0.00,VWS V14.01,2013-03-17 18:50:00,
2013-03-17 08:55:00,68.9,58.3,29.99,East,96,11.0,13.0,69,0.00,,,0.00,VWS V14.01,2013-03-17 18:55:00,
2013-03-17 09:00:00,69.0,58.8,29.99,East,99,9.0,10.0,70,0.00,,,0.00,VWS V14.01,2013-03-17 19:00:00,
2013-03-17 09:05:00,69.0,58.4,30.00,East,96,7.0,9.0,69,0.00,,,0.00,VWS V14.01,2013-03-17 19:05:00,
2013-03-17 09:10:00,69.1,58.5,30.00,ENE,59,9.0,9.0,69,0.00,,,0.00,VWS V14.01,2013-03-17 19:10:00,
2013-03-17 09:15:00,68.9,57.9,30.00,East,83,8.0,10.0,68,0.00,,,0.00,VWS V14.01,2013-03-17 19:15:00,
2013-03-17 09:20:00,69.2,58.2,30.00,ENE,59,9.0,12.0,68,0.00,,,0.00,VWS V14.01,2013-03-17 19:20:00,
2013-03-17 09:25:00,68.5,58.3,30.00,East,92,9.0,10.0,70,0.00,,,0.00,VWS V14.01,2013-03-17 19:25:00,
2013-03-17 09:30:00,68.2,58.0,30.00,ENE,69,7.0,13.0,70,0.00,,,0.00,VWS V14.01,2013-03-17 19:30:00,
2013-03-17 09:36:00,68.7,58.1,30.00,NE,56,12.0,14.0,69,0.00,,,0.00,VWS V14.01,2013-03-17 19:36:00,
2013-03-17 09:41:00,68.7,57.7,30.00,East,91,12.0,14.0,68,0.00,,,0.00,VWS V14.01,2013-03-17 19:41:00,
2013-03-17 09:46:00,68.9,57.9,30.00,ESE,106,9.0,13.0,68,0.00,,,0.00,VWS V14.01,2013-03-17 19:46:00,
2013-03-17 09:51:00,69.3,57.9,30.00,ESE,105,19.0,19.0,67,0.00,,,0.00,VWS V14.01,2013-03-17 19:51:00,
2013-03-17 09:56:00,69.7,57.4,30.00,ENE,61,14.0,14.0,65,0.00,,,0.00,VWS V14.01,2013-03-17 19:56:00,
2013-03-17 10:01:00,69.6,57.8,30.00,ESE,102,8.0,11.0,66,0.00,,,0.00,VWS V14.01,2013-03-17 20:01:00,
2013-03-17 10:06:00,70.0,56.8,30.00,ESE,107,8.0,12.0,63,0.00,,,0.00,VWS V14.01,2013-03-17 20:06:00,
2013-03-17 10:12:00,70.7,57.5,30.00,East,80,12.0,12.0,63,0.00,,,0.00,VWS V14.01,2013-03-17 20:12:00,
2013-03-17 10:17:00,69.5,60.5,29.99,ESE,104,15.0,15.0,73,0.00,,,0.00,VWS V14.01,2013-03-17 20:17:00,
2013-03-17 10:22:00,69.3,60.3,30.00,East,84,12.0,14.0,73,0.00,,,0.00,VWS V14.01,2013-03-17 20:22:00,
2013-03-17 10:27:00,69.6,59.4,30.00,ESE,112,15.0,15.0,70,0.00,,,0.00,VWS V14.01,2013-03-17 20:27:00,
2013-03-17 10:32:00,69.6,59.4,30.00,ENE,66,9.0,12.0,70,0.00,,,0.00,VWS V14.01,2013-03-17 20:32:00,
2013-03-17 10:37:00,68.7,59.3,29.99,East,101,9.0,9.0,72,0.00,,,0.00,VWS V14.01,2013-03-17 20:37:00,
2013-03-17 10:42:00,67.9,58.2,30.00,ENE,63,7.0,11.0,71,0.00,,,0.00,VWS V14.01,2013-03-17 20:42:00,
2013-03-17 10:47:00,68.5,59.5,30.00,ESE,102,21.0,21.0,73,0.00,,,0.00,VWS V14.01,2013-03-17 20:47:00,
2013-03-17 10:52:00,69.2,59.0,30.00,NE,56,8.0,13.0,70,0.00,,,0.00,VWS V14.01,2013-03-17 20:52:00,
2013-03-17 10:57:00,68.4,59.0,29.99,East,89,14.0,14.0,72,0.00,,,0.00,VWS V14.01,2013-03-17 20:57:00,
2013-03-17 11:02:00,68.2,58.8,30.00,East,87,13.0,13.0,72,0.00,,,0.00,VWS V14.01,2013-03-17 21:02:00,
2013-03-17 11:07:00,67.8,58.8,30.00,East,100,12.0,12.0,73,0.00,,,0.00,VWS V14.01,2013-03-17 21:07:00,
2013-03-17 11:12:00,67.7,58.4,30.02,NNE,31,11.0,11.0,72,0.00,,,0.00,VWS V14.01,2013-03-17 21:12:00,
2013-03-17 11:18:00,67.1,58.5,30.01,NE,53,11.0,11.0,74,0.00,,,0.00,VWS V14.01,2013-03-17 21:18:00,
2013-03-17 11:23:00,67.3,58.7,30.01,ESE,106,12.0,13.0,74,0.00,,,0.00,VWS V14.01,2013-03-17 21:23:00,
2013-03-17 11:28:00,66.9,58.3,30.01,ESE,102,8.0,8.0,74,0.00,,,0.00,VWS V14.01,2013-03-17 21:28:00,
2013-03-17 11:33:00,67.2,59.0,30.01,ENE,61,8.0,10.0,75,0.00,,,0.00,VWS V14.01,2013-03-17 21:33:00,
2013-03-17 11:38:00,67.6,58.7,30.00,ENE,73,6.0,8.0,73,0.00,,,0.00,VWS V14.01,2013-03-17 21:38:00,
2013-03-17 11:43:00,68.1,58.0,30.00,NNE,27,11.0,13.0,70,0.00,,,0.00,VWS V14.01,2013-03-17 21:43:00,
2013-03-17 11:48:00,67.9,58.9,30.00,ENE,78,7.0,10.0,73,0.00,,,0.00,VWS V14.01,2013-03-17 21:48:00,
2013-03-17 11:53:00,68.5,59.5,30.00,ENE,59,11.0,11.0,73,0.00,,,0.00,VWS V14.01,2013-03-17 21:53:00,
2013-03-17 11:58:00,67.8,59.6,29.99,East,97,12.0,12.0,75,0.00,,,0.00,VWS V14.01,2013-03-17 21:58:00,
2013-03-17 12:03:00,67.7,58.7,29.99,ENE,57,11.0,12.0,73,0.00,,,0.00,VWS V14.01,2013-03-17 22:03:00,
2013-03-17 12:08:00,68.2,59.6,29.99,ENE,69,9.0,11.0,74,0.00,,,0.00,VWS V14.01,2013-03-17 22:08:00,
2013-03-17 12:13:00,68.6,59.6,29.98,ESE,102,9.0,9.0,73,0.00,,,0.00,VWS V14.01,2013-03-17 22:13:00,
2013-03-17 12:18:00,68.8,58.2,29.98,East,86,6.0,9.0,69,0.00,,,0.00,VWS V14.01,2013-03-17 22:18:00,
2013-03-17 12:23:00,69.4,58.8,29.98,NE,50,11.0,11.0,69,0.00,,,0.00,VWS V14.01,2013-03-17 22:23:00,
2013-03-17 12:28:00,69.0,58.8,29.98,ESE,105,4.0,4.0,70,0.00,,,0.00,VWS V14.01,2013-03-17 22:28:00,
2013-03-17 12:34:00,69.8,59.2,29.97,ENE,78,14.0,14.0,69,0.00,,,0.00,VWS V14.01,2013-03-17 22:34:00,
2013-03-17 12:39:00,68.9,57.9,29.98,ENE,58,11.0,11.0,68,0.00,,,0.00,VWS V14.01,2013-03-17 22:39:00,
2013-03-17 12:44:00,68.5,57.1,29.97,East,82,11.0,12.0,67,0.00,,,0.00,VWS V14.01,2013-03-17 22:44:00,
2013-03-17 12:49:00,68.3,56.5,29.97,ENE,58,13.0,14.0,66,0.00,,,0.00,VWS V14.01,2013-03-17 22:49:00,
2013-03-17 12:54:00,68.8,57.4,29.96,ENE,60,7.0,9.0,67,0.00,,,0.00,VWS V14.01,2013-03-17 22:54:00,
2013-03-17 12:59:00,69.3,57.5,29.97,NE,44,11.0,11.0,66,0.00,,,0.00,VWS V14.01,2013-03-17 22:59:00,
2013-03-17 13:04:00,69.4,56.7,29.96,ENE,61,8.0,12.0,64,0.00,,,0.00,VWS V14.01,2013-03-17 23:04:00,
2013-03-17 13:09:00,70.3,56.7,29.96,East,99,16.0,16.0,62,0.00,,,0.00,VWS V14.01,2013-03-17 23:09:00,
2013-03-17 13:14:00,69.9,54.5,29.95,ENE,71,10.0,10.0,58,0.00,,,0.00,VWS V14.01,2013-03-17 23:14:00,
2013-03-17 13:19:00,70.5,56.4,29.95,NE,52,8.0,12.0,61,0.00,,,0.00,VWS V14.01,2013-03-17 23:19:00,
2013-03-17 13:24:00,69.5,56.4,29.95,ESE,107,13.0,13.0,63,0.00,,,0.00,VWS V14.01,2013-03-17 23:24:00,
2013-03-17 13:29:00,69.4,57.1,29.94,ESE,120,10.0,13.0,65,0.00,,,0.00,VWS V14.01,2013-03-17 23:29:00,
2013-03-17 13:35:00,69.2,57.0,29.94,ESE,111,7.0,9.0,65,0.00,,,0.00,VWS V14.01,2013-03-17 23:35:00,
2013-03-17 13:40:00,69.5,56.8,29.94,NE,52,9.0,12.0,64,0.00,,,0.00,VWS V14.01,2013-03-17 23:40:00,
2013-03-17 13:45:00,69.5,57.7,29.93,East,97,7.0,8.0,66,0.00,,,0.00,VWS V14.01,2013-03-17 23:45:00,
2013-03-17 13:50:00,70.2,57.5,29.93,SE,125,14.0,14.0,64,0.00,,,0.00,VWS V14.01,2013-03-17 23:50:00,
2013-03-17 13:55:00,69.8,57.5,29.93,East,98,9.0,10.0,65,0.00,,,0.00,VWS V14.01,2013-03-17 23:55:00,
2013-03-17 14:00:00,70.2,57.9,29.93,ESE,102,10.0,13.0,65,0.00,,,0.00,VWS V14.01,2013-03-18 00:00:00,
2013-03-17 14:05:00,69.7,57.4,29.93,East,99,8.0,9.0,65,0.00,,,0.00,VWS V14.01,2013-03-18 00:05:00,
2013-03-17 14:10:00,69.1,57.3,29.93,ENE,71,4.0,6.0,66,0.00,,,0.00,VWS V14.01,2013-03-18 00:10:00,
2013-03-17 14:15:00,69.2,57.8,29.92,East,95,14.0,14.0,67,0.00,,,0.00,VWS V14.01,2013-03-18 00:15:00,
2013-03-17 14:20:00,68.7,57.3,29.92,ESE,104,11.0,11.0,67,0.00,,,0.00,VWS V14.01,2013-03-18 00:20:00,
2013-03-17 14:25:00,68.8,57.4,29.92,ENE,68,9.0,13.0,67,0.00,,,0.00,VWS V14.01,2013-03-18 00:25:00,
2013-03-17 14:30:00,68.5,57.1,29.93,ESE,102,10.0,12.0,67,0.00,,,0.00,VWS V14.01,2013-03-18 00:30:00,
2013-03-17 14:35:00,68.1,56.7,29.93,ESE,106,8.0,10.0,67,0.00,,,0.00,VWS V14.01,2013-03-18 00:35:00,
2013-03-17 14:40:00,68.2,57.2,29.93,ENE,63,5.0,6.0,68,0.00,,,0.00,VWS V14.01,2013-03-18 00:40:00,
2013-03-17 14:46:00,68.0,56.7,29.93,ENE,62,12.0,12.0,67,0.00,,,0.00,VWS V14.01,2013-03-18 00:46:00,
2013-03-17 14:51:00,68.4,57.0,29.92,East,101,14.0,15.0,67,0.00,,,0.00,VWS V14.01,2013-03-18 00:51:00,
2013-03-17 14:56:00,69.1,56.8,29.92,ENE,58,12.0,12.0,65,0.00,,,0.00,VWS V14.01,2013-03-18 00:56:00,
2013-03-17 15:01:00,68.9,56.7,29.92,ENE,60,7.0,12.0,65,0.00,,,0.00,VWS V14.01,2013-03-18 01:01:00,
2013-03-17 15:06:00,68.6,56.8,29.92,ESE,107,14.0,14.0,66,0.00,,,0.00,VWS V14.01,2013-03-18 01:06:00,
2013-03-17 15:11:00,68.8,56.6,29.92,NE,56,13.0,13.0,65,0.00,,,0.00,VWS V14.01,2013-03-18 01:11:00,
2013-03-17 15:16:00,69.0,57.2,29.92,ESE,111,10.0,10.0,66,0.00,,,0.00,VWS V14.01,2013-03-18 01:16:00,
2013-03-17 15:21:00,69.0,56.8,29.92,ESE,107,10.0,11.0,65,0.00,,,0.00,VWS V14.01,2013-03-18 01:21:00,
2013-03-17 15:26:00,68.8,56.6,29.92,East,85,6.0,10.0,65,0.00,,,0.00,VWS V14.01,2013-03-18 01:26:00,
2013-03-17 15:31:00,68.7,56.5,29.92,ESE,115,11.0,11.0,65,0.00,,,0.00,VWS V14.01,2013-03-18 01:31:00,
2013-03-17 15:37:00,68.6,56.4,29.92,East,100,7.0,8.0,65,0.00,,,0.00,VWS V14.01,2013-03-18 01:37:00,
2013-03-17 15:42:00,68.6,56.8,29.92,NE,54,8.0,9.0,66,0.00,,,0.00,VWS V14.01,2013-03-18 01:42:00,
2013-03-17 15:47:00,68.6,56.4,29.92,ENE,58,7.0,8.0,65,0.00,,,0.00,VWS V14.01,2013-03-18 01:47:00,
2013-03-17 15:52:00,68.4,55.8,29.92,East,99,8.0,8.0,64,0.00,,,0.00,VWS V14.01,2013-03-18 01:52:00,
2013-03-17 15:57:00,67.7,54.7,29.92,ENE,59,7.0,10.0,63,0.00,,,0.00,VWS V14.01,2013-03-18 01:57:00,
2013-03-17 16:02:00,67.4,55.7,29.92,NE,47,8.0,8.0,66,0.00,,,0.00,VWS V14.01,2013-03-18 02:02:00,
2013-03-17 16:07:00,67.4,56.1,29.92,East,101,10.0,10.0,67,0.00,,,0.00,VWS V14.01,2013-03-18 02:07:00,
2013-03-17 16:12:00,67.2,54.6,29.92,East,99,6.0,7.0,64,0.00,,,0.00,VWS V14.01,2013-03-18 02:12:00,
2013-03-17 16:17:00,67.1,55.8,29.92,ENE,63,6.0,7.0,67,0.00,,,0.00,VWS V14.01,2013-03-18 02:17:00,
2013-03-17 16:22:00,67.0,56.1,29.92,ENE,61,10.0,10.0,68,0.00,,,0.00,VWS V14.01,2013-03-18 02:22:00,
2013-03-17 16:27:00,66.9,56.0,29.92,ENE,63,7.0,9.0,68,0.00,,,0.00,VWS V14.01,2013-03-18 02:27:00,
2013-03-17 16:32:00,66.9,55.2,29.92,ENE,76,10.0,10.0,66,0.00,,,0.00,VWS V14.01,2013-03-18 02:32:00,
2013-03-17 16:37:00,67.2,55.9,29.93,East,101,6.0,8.0,67,0.00,,,0.00,VWS V14.01,2013-03-18 02:37:00,
2013-03-17 16:42:00,67.2,56.3,29.92,ESE,107,11.0,11.0,68,0.00,,,0.00,VWS V14.01,2013-03-18 02:42:00,
2013-03-17 16:48:00,67.1,56.2,29.93,East,84,5.0,6.0,68,0.00,,,0.00,VWS V14.01,2013-03-18 02:48:00,
2013-03-17 16:53:00,67.2,56.7,29.92,East,87,5.0,9.0,69,0.00,,,0.00,VWS V14.01,2013-03-18 02:53:00,
2013-03-17 16:58:00,66.9,56.4,29.93,East,87,6.0,7.0,69,0.00,,,0.00,VWS V14.01,2013-03-18 02:58:00,
2013-03-17 17:03:00,66.6,56.5,29.93,East,80,4.0,6.0,70,0.00,,,0.00,VWS V14.01,2013-03-18 03:03:00,
2013-03-17 17:08:00,66.4,56.3,29.92,NE,50,5.0,5.0,70,0.00,,,0.00,VWS V14.01,2013-03-18 03:08:00,
2013-03-17 17:13:00,66.3,56.6,29.93,East,90,3.0,4.0,71,0.00,,,0.00,VWS V14.01,2013-03-18 03:13:00,
2013-03-17 17:18:00,66.3,56.2,29.93,ENE,65,2.0,3.0,70,0.00,,,0.00,VWS V14.01,2013-03-18 03:18:00,
2013-03-17 17:23:00,66.2,56.5,29.93,NE,34,4.0,5.0,71,0.00,,,0.00,VWS V14.01,2013-03-18 03:23:00,
2013-03-17 17:28:00,66.1,56.4,29.93,ENE,73,4.0,5.0,71,0.00,,,0.00,VWS V14.01,2013-03-18 03:28:00,
2013-03-17 17:33:00,65.9,56.6,29.94,East,92,4.0,4.0,72,0.00,,,0.00,VWS V14.01,2013-03-18 03:33:00,
2013-03-17 17:38:00,65.8,56.5,29.94,ENE,63,6.0,6.0,72,0.00,,,0.00,VWS V14.01,2013-03-18 03:38:00,
2013-03-17 17:43:00,65.7,56.4,29.94,East,87,7.0,7.0,72,0.00,,,0.00,VWS V14.01,2013-03-18 03:43:00,
2013-03-17 17:48:00,65.6,56.3,29.94,NE,52,4.0,5.0,72,0.00,,,0.00,VWS V14.01,2013-03-18 03:48:00,
2013-03-17 17:54:00,65.6,56.3,29.95,ENE,70,4.0,4.0,72,0.00,,,0.00,VWS V14.01,2013-03-18 03:54:00,
2013-03-17 17:59:00,65.6,56.7,29.95,NE,50,4.0,6.0,73,0.00,,,0.00,VWS V14.01,2013-03-18 03:59:00,
2013-03-17 18:00:00,65.6,56.7,29.95,NE,52,5.0,5.0,73,0.00,,,0.00,VWS V14.01,2013-03-18 04:00:00,
2013-03-17 18:01:00,65.6,56.7,29.95,ENE,63,5.0,5.0,73,0.00,,,0.00,VWS V14.01,2013-03-18 04:01:00,
2013-03-17 18:06:00,65.5,56.6,29.95,NE,51,4.0,5.0,73,0.00,,,0.00,VWS V14.01,2013-03-18 04:06:00,
2013-03-17 18:11:00,65.4,56.5,29.96,NE,52,3.0,3.0,73,0.00,,,0.00,VWS V14.01,2013-03-18 04:11:00,
2013-03-17 18:16:00,65.4,56.5,29.96,NNE,26,5.0,5.0,73,0.00,,,0.00,VWS V14.01,2013-03-18 04:16:00,
2013-03-17 18:21:00,65.3,56.4,29.96,North,7,4.0,4.0,73,0.00,,,0.00,VWS V14.01,2013-03-18 04:21:00,
2013-03-17 18:26:00,65.3,56.0,29.96,NE,48,1.0,3.0,72,0.00,,,0.00,VWS V14.01,2013-03-18 04:26:00,
2013-03-17 18:32:00,65.2,56.0,29.97,NNW,333,0.0,1.0,72,0.00,,,0.00,VWS V14.01,2013-03-18 04:32:00,
2013-03-17 18:37:00,65.1,56.2,29.97,North,7,8.0,8.0,73,0.00,,,0.00,VWS V14.01,2013-03-18 04:37:00,
2013-03-17 18:42:00,65.2,56.0,29.97,NE,41,2.0,2.0,72,0.00,,,0.00,VWS V14.01,2013-03-18 04:42:00,
2013-03-17 18:47:00,64.9,56.0,29.97,NNE,24,2.0,3.0,73,0.00,,,0.00,VWS V14.01,2013-03-18 04:47:00,
2013-03-17 18:52:00,64.8,56.0,29.97,NNE,20,3.0,4.0,73,0.00,,,0.00,VWS V14.01,2013-03-18 04:52:00,
2013-03-17 18:57:00,64.8,56.0,29.97,North,3,1.0,2.0,73,0.00,,,0.00,VWS V14.01,2013-03-18 04:57:00,
2013-03-17 19:02:00,64.6,55.8,29.97,North,8,4.0,4.0,73,0.00,,,0.00,VWS V14.01,2013-03-18 05:02:00,
2013-03-17 19:07:00,64.7,55.9,29.97,NNE,17,2.0,2.0,73,0.00,,,0.00,VWS V14.01,2013-03-18 05:07:00,
2013-03-17 19:12:00,64.8,55.6,29.97,North,5,4.0,4.0,72,0.00,,,0.00,VWS V14.01,2013-03-18 05:12:00,
2013-03-17 19:17:00,64.9,55.7,29.98,NE,35,3.0,3.0,72,0.00,,,0.00,VWS V14.01,2013-03-18 05:17:00,
2013-03-17 19:22:00,64.9,55.3,29.98,NNE,19,4.0,4.0,71,0.00,,,0.00,VWS V14.01,2013-03-18 05:22:00,
2013-03-17 19:27:00,65.0,55.4,29.98,NNE,16,2.0,3.0,71,0.00,,,0.00,VWS V14.01,2013-03-18 05:27:00,
2013-03-17 19:32:00,64.9,55.3,29.98,NNE,21,3.0,3.0,71,0.00,,,0.00,VWS V14.01,2013-03-18 05:32:00,
2013-03-17 19:37:00,64.7,55.5,29.98,North,9,9.0,9.0,72,0.00,,,0.00,VWS V14.01,2013-03-18 05:37:00,
2013-03-17 19:42:00,64.7,55.1,29.99,NE,43,2.0,3.0,71,0.00,,,0.00,VWS V14.01,2013-03-18 05:42:00,
2013-03-17 19:48:00,64.9,55.3,29.99,NNW,327,6.0,6.0,71,0.00,,,0.00,VWS V14.01,2013-03-18 05:48:00,
2013-03-17 19:53:00,64.8,55.2,29.99,NNE,26,1.0,2.0,71,0.00,,,0.00,VWS V14.01,2013-03-18 05:53:00,
2013-03-17 19:58:00,64.6,55.0,29.99,NNE,19,3.0,4.0,71,0.00,,,0.00,VWS V14.01,2013-03-18 05:58:00,
2013-03-17 20:03:00,64.2,55.0,29.99,NNE,14,3.0,3.0,72,0.00,,,0.00,VWS V14.01,2013-03-18 06:03:00,
2013-03-17 20:08:00,64.3,55.1,29.99,NE,35,2.0,2.0,72,0.00,,,0.00,VWS V14.01,2013-03-18 06:08:00,
2013-03-17 20:13:00,64.3,55.1,29.99,NNW,347,3.0,3.0,72,0.00,,,0.00,VWS V14.01,2013-03-18 06:13:00,
2013-03-17 20:18:00,64.4,54.8,29.99,North,355,3.0,3.0,71,0.00,,,0.00,VWS V14.01,2013-03-18 06:18:00,
2013-03-17 20:23:00,64.3,54.7,30.00,NNE,26,2.0,2.0,71,0.00,,,0.00,VWS V14.01,2013-03-18 06:23:00,
2013-03-17 20:28:00,64.4,54.4,30.00,NNW,335,5.0,5.0,70,0.00,,,0.00,VWS V14.01,2013-03-18 06:28:00,
2013-03-17 20:33:00,64.2,54.6,30.00,North,11,4.0,4.0,71,0.00,,,0.00,VWS V14.01,2013-03-18 06:33:00,
2013-03-17 20:38:00,64.4,54.4,30.00,NNW,347,3.0,3.0,70,0.00,,,0.00,VWS V14.01,2013-03-18 06:38:00,
2013-03-17 20:43:00,64.2,54.6,30.00,NNE,19,3.0,3.0,71,0.00,,,0.00,VWS V14.01,2013-03-18 06:43:00,
2013-03-17 20:49:00,63.8,54.2,30.01,North,356,4.0,4.0,71,0.00,,,0.00,VWS V14.01,2013-03-18 06:49:00,
2013-03-17 20:53:00,64.3,54.3,30.00,NNE,26,3.0,3.0,70,0.00,,,0.00,VWS V14.01,2013-03-18 06:53:00,
2013-03-17 20:58:00,64.4,54.4,30.00,NNE,23,2.0,2.0,70,0.00,,,0.00,VWS V14.01,2013-03-18 06:58:00,
2013-03-17 21:04:00,64.2,54.2,30.00,North,5,3.0,3.0,70,0.00,,,0.00,VWS V14.01,2013-03-18 07:04:00,
2013-03-17 21:09:00,64.4,54.4,30.00,NNE,20,4.0,4.0,70,0.00,,,0.00,VWS V14.01,2013-03-18 07:09:00,
2013-03-17 21:14:00,64.6,54.6,30.01,East,83,2.0,3.0,70,0.00,,,0.00,VWS V14.01,2013-03-18 07:14:00,
2013-03-17 21:19:00,64.6,54.6,30.00,NNE,26,4.0,4.0,70,0.00,,,0.00,VWS V14.01,2013-03-18 07:19:00,
2013-03-17 21:24:00,64.7,54.7,30.01,NE,55,2.0,3.0,70,0.00,,,0.00,VWS V14.01,2013-03-18 07:24:00,
2013-03-17 21:29:00,64.3,54.3,30.01,North,8,3.0,4.0,70,0.00,,,0.00,VWS V14.01,2013-03-18 07:29:00,
2013-03-17 21:34:00,63.9,54.3,30.01,NNE,12,3.0,4.0,71,0.00,,,0.00,VWS V14.01,2013-03-18 07:34:00,
2013-03-17 21:39:00,64.4,54.4,30.01,NNE,20,7.0,7.0,70,0.00,,,0.00,VWS V14.01,2013-03-18 07:39:00,
2013-03-17 21:44:00,64.5,54.5,30.01,NNE,14,5.0,5.0,70,0.00,,,0.00,VWS V14.01,2013-03-18 07:44:00,
2013-03-17 21:49:00,64.7,54.7,30.02,North,2,2.0,4.0,70,0.00,,,0.00,VWS V14.01,2013-03-18 07:49:00,
2013-03-17 21:54:00,64.3,54.3,30.02,NNE,14,4.0,5.0,70,0.00,,,0.00,VWS V14.01,2013-03-18 07:54:00,
2013-03-17 21:59:00,64.1,54.9,30.02,North,349,3.0,4.0,72,0.00,,,0.00,VWS V14.01,2013-03-18 07:59:00,
2013-03-17 22:05:00,63.9,54.7,30.01,NNE,19,2.0,2.0,72,0.00,,,0.00,VWS V14.01,2013-03-18 08:05:00,
2013-03-17 22:10:00,63.6,54.8,30.02,NNW,335,4.0,5.0,73,0.00,,,0.00,VWS V14.01,2013-03-18 08:10:00,
2013-03-17 22:15:00,64.0,54.8,30.02,North,358,2.0,3.0,72,0.00,,,0.00,VWS V14.01,2013-03-18 08:15:00,
2013-03-17 22:20:00,63.9,54.7,30.02,North,5,4.0,4.0,72,0.00,,,0.00,VWS V14.01,2013-03-18 08:20:00,
2013-03-17 22:25:00,63.9,54.7,30.02,North,359,3.0,3.0,72,0.00,,,0.00,VWS V14.01,2013-03-18 08:25:00,
2013-03-17 22:30:00,63.4,54.6,30.02,North,9,3.0,4.0,73,0.00,,,0.00,VWS V14.01,2013-03-18 08:30:00,
2013-03-17 22:35:00,63.6,54.8,30.02,NNE,17,2.0,3.0,73,0.00,,,0.00,VWS V14.01,2013-03-18 08:35:00,
2013-03-17 22:40:00,63.5,54.7,30.03,NNE,13,2.0,3.0,73,0.00,,,0.00,VWS V14.01,2013-03-18 08:40:00,
2013-03-17 22:45:00,63.7,54.9,30.02,NNW,343,4.0,4.0,73,0.00,,,0.00,VWS V14.01,2013-03-18 08:45:00,
2013-03-17 22:50:00,63.3,54.9,30.02,NNW,334,4.0,5.0,74,0.00,,,0.00,VWS V14.01,2013-03-18 08:50:00,
2013-03-17 22:55:00,63.4,55.0,30.02,NNE,25,1.0,3.0,74,0.00,,,0.00,VWS V14.01,2013-03-18 08:55:00,
2013-03-17 23:00:00,63.8,54.6,30.02,NNE,14,3.0,3.0,72,0.00,,,0.00,VWS V14.01,2013-03-18 09:00:00,
2013-03-17 23:05:00,63.8,54.6,30.02,NNE,15,4.0,4.0,72,0.00,,,0.00,VWS V14.01,2013-03-18 09:05:00,
2013-03-17 23:10:00,63.7,54.5,30.02,NNW,343,4.0,6.0,72,0.00,,,0.00,VWS V14.01,2013-03-18 09:10:00,
2013-03-17 23:15:00,64.0,54.8,30.02,North,10,2.0,2.0,72,0.00,,,0.00,VWS V14.01,2013-03-18 09:15:00,
2013-03-17 23:20:00,63.8,55.0,30.02,NNE,31,2.0,2.0,73,0.00,,,0.00,VWS V14.01,2013-03-18 09:20:00,
2013-03-17 23:26:00,63.5,54.7,30.02,NNW,335,4.0,4.0,73,0.00,,,0.00,VWS V14.01,2013-03-18 09:26:00,
2013-03-17 23:31:00,63.2,54.8,30.02,North,357,3.0,3.0,74,0.00,,,0.00,VWS V14.01,2013-03-18 09:31:00,
2013-03-17 23:36:00,63.8,55.0,30.02,North,3,3.0,5.0,73,0.00,,,0.00,VWS V14.01,2013-03-18 09:36:00,
2013-03-17 23:41:00,63.9,54.7,30.02,NW,323,4.0,5.0,72,0.00,,,0.00,VWS V14.01,2013-03-18 09:41:00,
2013-03-17 23:46:00,64.2,55.0,30.01,NNE,24,4.0,4.0,72,0.00,,,0.00,VWS V14.01,2013-03-18 09:46:00,
2013-03-17 23:51:00,63.7,54.5,30.01,NNE,25,4.0,5.0,72,0.00,,,0.00,VWS V14.01,2013-03-18 09:51:00,
2013-03-17 23:56:00,63.6,54.8,30.02,NNW,329,5.0,5.0,73,0.00,,,0.00,VWS V14.01,2013-03-18 09:56:00,